Regional Weather Roundup
Issued by NWS

Home | Current Version | Previous Version | Text Only | Print | Product List | Glossary Off
Versions: 1 2 3 4 5 6 7 8 9 10 11 12 13 14 15 16 17 18 19 20 21 22 23 24 25 26 27 28 29 30 31 32 33 34 35 36 37 38 39 40 41 42 43 44 45 46 47 48 49 50

000
ASUS45 KPSR 280610
RWRAZ

ARIZONA REGIONAL HOURLY WEATHER ROUNDUP
NATIONAL WEATHER SERVICE PHOENIX AZ
1100 PM MST SUN JUL 27 2014

NOTE: FAIR INDICATES FEW OR NO CLOUDS BELOW 12,000 FEET WITH NO
SIGNIFICANT WEATHER AND/OR OBSTRUCTIONS TO VISIBILITY.

AZZ001>003-036-280700-
NORTHWEST ARIZONA

CITY           SKY/WX    TMP DP  RH WIND       PRES   REMARKS
BULLHEAD CITY  CLEAR     95  59  30 NE7       29.91S
KINGMAN        MOCLDY    80  55  42 CALM      30.12S
6HR MIN TEMP:  80; 6HR MAX TEMP:  94;

$$

AZZ004>008-015-016-018-280700-
NORTH CENTRAL ARIZONA

CITY           SKY/WX    TMP DP  RH WIND       PRES   REMARKS
GRAND CANYON   LGT RAIN  61  57  87 SE5       30.44S
6HR MIN TEMP:  60; 6HR MAX TEMP:  83; 6HR PCP:  0.25;

WILLIAMS       CLOUDY    59  55  88 S9        30.51R
PRESCOTT       MOCLDY    72  56  57 CALM      30.28S
6HR MIN TEMP:  72; 6HR MAX TEMP:  88;

FLAGSTAFF      CLOUDY    63  50  62 NW5       30.44R
6HR MIN TEMP:  62; 6HR MAX TEMP:  75; 6HR PCP:  0.01;

PAYSON         CLOUDY    72  54  53 VRB7      30.35R
PAGE           CLOUDY    77  56  48 SW16G26   30.20F
6HR MIN TEMP:  76; 6HR MAX TEMP:  97;

$$

AZZ009>014-017-280700-
NORTHEAST ARIZONA

CITY           SKY/WX    TMP DP  RH WIND       PRES   REMARKS
WINSLOW        CLOUDY    71  55  56 CALM      30.30R
6HR MIN TEMP:  70; 6HR MAX TEMP:  94; 6HR PCP: TRACE;

SAINT JOHNS    MOCLDY    69  54  58 S10       30.35R
6HR MIN TEMP:  68; 6HR MAX TEMP:  79; 6HR PCP: TRACE;

WINDOW ROCK    CLOUDY    66  49  54 NE10      30.42F
6HR MIN TEMP:  63; 6HR MAX TEMP:  79; 6HR PCP:  0.02;

SHOW LOW       CLOUDY    63  50  63 SE9       30.44R
$$

AZZ023-280700-
GREATER PHOENIX AREA

CITY           SKY/WX    TMP DP  RH WIND       PRES   REMARKS
PHOENIX        MOCLDY    95  57  27 CALM      29.95R
6HR MIN TEMP:  95; 6HR MAX TEMP: 103;

BUCKEYE          N/A     86  59  39 SW5       29.95S
LUKE AFB       NOT AVBL
6HR MIN TEMP:  91; 6HR MAX TEMP: 102;

DEER VALLEY    PTCLDY    91  60  35 CALM      29.97R
6HR MIN TEMP:  90; 6HR MAX TEMP: 100;

SCOTTSDALE     MOCLDY    94  56  27 CALM      30.00R
6HR MIN TEMP:  93; 6HR MAX TEMP: 100;

MESA-GATEWAY   RAIN      82  68  61 E23       30.04R
$$

AZZ027-028-280700-
SOUTHWEST MARICOPA COUNTY AND PINAL COUNTY

CITY           SKY/WX    TMP DP  RH WIND       PRES   REMARKS
CASA GRANDE    MOCLDY    91  57  31 E16G26    30.03R
6HR MIN TEMP:  91; 6HR MAX TEMP: 100;

$$

AZZ503-504-507>509-280700-
SOUTHEAST ARIZONA

CITY           SKY/WX    TMP DP  RH WIND       PRES   REMARKS
TUCSON         TSTM      80  63  55 E10       30.16R
6HR MIN TEMP:  80; 6HR MAX TEMP:  98; 6HR PCP: TRACE;

DAVIS-MONTHAN  MOCLDY    73  64  73 E12       30.14R THUNDER
6HR MIN TEMP:  72; 6HR MAX TEMP:  95; 6HR PCP:  0.24;

NOGALES        CLOUDY    75  61  61 E16G32    30.20R
6HR MIN TEMP:  75; 6HR MAX TEMP:  91;

SIERRA VISTA   TSTM      68  63  83 S12       30.29R
                                      6HR PCP:  0.54;

DOUGLAS        LGT RAIN  68  65  90 CALM      30.24R
6HR MIN TEMP:  67; 6HR MAX TEMP:  92; 6HR PCP:  1.66;

SAFFORD        LGT RAIN  70  66  87 W7        30.17F
6HR MIN TEMP:  69; 6HR MAX TEMP: 102; 6HR PCP:  0.45;

$$

AZZ020-021-025-026-031-280700-
SOUTHWEST ARIZONA

CITY           SKY/WX    TMP DP  RH WIND       PRES   REMARKS
YUMA           CLEAR     92  66  42 CALM      29.88R
6HR MIN TEMP:  91; 6HR MAX TEMP: 101; 6HR PCP: TRACE;

$$

CAZ031-033-041-043-047-048-061-280700-
SOUTHERN CALIFORNIA

CITY           SKY/WX    TMP DP  RH WIND       PRES   REMARKS
DOWNTOWN L.A.  PTCLDY    70  63  78 SW3       29.97R
6HR MIN TEMP:  70; 6HR MAX TEMP:  82;

L.A. AIRPORT   MOCLDY    68  63  84 W10       29.99R
6HR MIN TEMP:  68; 6HR MAX TEMP:  73;

SAN DIEGO      MOCLDY    72  67  84 CALM      30.02R
6HR MIN TEMP:  72; 6HR MAX TEMP:  77;

BURBANK        PTCLDY    77  60  55 SE9       29.97R
6HR MIN TEMP:  77; 6HR MAX TEMP:  92;

ONTARIO        CLOUDY    81  48  31 W9        29.99R
6HR MIN TEMP:  81; 6HR MAX TEMP:  95;

RIVERSIDE      CLOUDY    82  46  28 W6        29.99R
6HR MIN TEMP:  82; 6HR MAX TEMP:  96;

PALM SPRINGS   MOCLDY    93  66  40 SE5       29.92R
6HR MIN TEMP:  93; 6HR MAX TEMP:  99;

EL CENTRO NAS  CLEAR     88  62  41 S3        29.86R
6HR MIN TEMP:  88; 6HR MAX TEMP:  99;

IMPERIAL       CLEAR     93  60  33 S5        29.85S
6HR MIN TEMP:  92; 6HR MAX TEMP: 100;

BLYTHE           N/A    N/A N/A N/A MISG      29.88R
NEEDLES        CLEAR     95  55  26 SW7       29.92R
6HR MIN TEMP:  95; 6HR MAX TEMP: 104;

$$

NVZ020-UTZ003-280700-
SOUTHERN NEVADA-UTAH

CITY           SKY/WX    TMP DP  RH WIND       PRES   REMARKS
LAS VEGAS      MOCLDY    82  63  52 S13       29.99S
6HR MIN TEMP:  78; 6HR MAX TEMP:  94; 6HR PCP:  0.01;

SALT LAKE CITY CLOUDY    83  39  21 SE7       30.10S
6HR MIN TEMP:  82; 6HR MAX TEMP:  98;

$$

NMZ009-TXZ055-280700-
NEW MEXICO-WEST TEXAS

CITY           SKY/WX    TMP DP  RH WIND       PRES   REMARKS
ALBUQUERQUE    CLOUDY    78  55  44 E15       30.33R
6HR MIN TEMP:  74; 6HR MAX TEMP:  79;

EL PASO        CLOUDY    83  55  38 N9        30.13R
6HR MIN TEMP:  83; 6HR MAX TEMP:  95;

$$


........................KEY........................
SKY/WX - SKY CONDITION/WEATHER
TMP    - TEMPERATURE IN FAHRENHEIT
DP     - DEW POINT IN FAHRENHEIT
RH     - RELATIVE HUMIDITY IN PERCENT
WIND   - DIRECTION AND SPEED IN MILES PER HOUR (MPH)
VRB    - VARIABLE WIND DIRECTION
PRES   - MEAN SEA LEVEL PRESSURE IN INCHES OF MERCURY
         F - FALLING PRESSURE   R - RISING PRESSURE
         S - STEADY PRESSURE
VSB    - VISIBILITY IN MILES
HX     - HEAT INDEX IN FAHRENHEIT
WCI    - WIND CHILL INDEX IN FAHRENHEIT
TC     - TEMPERATURE IN CELSIUS WHICH IS ALSO KNOWN AS
         TEMPERATURE IN CENTIGRADE
AFB    - AIR FORCE BASE
         LUKE AFB IS LUKE AIR FORCE BASE
         DAVIS-MONTHAN IS DAVIS-MONTHAN AIR FORCE BASE
NAS    - NAVAL AIR STATION
         EL CENTRO NAS IS EL CENTRO NAVAL AIR STATION
N/A    - NOT AVAILABLE



USA.gov is the U.S. government's official web portal to all federal, state and local government web resources and services.